Hourly Weather Tashkent

Today, 13 June, Sunday

Time Temperature Precipitation Wind Pressure Humidity
00:00 +27°C° 0 mm 3 mps 715 mmHg 26%
01:00 +26°C° 0 mm 3 mps 715 mmHg 27%
02:00 +25°C° 0 mm 2 mps 715 mmHg 28%
03:00 +24°C° 0 mm 2 mps 716 mmHg 29%
04:00 +24°C° 0 mm 1 mps 716 mmHg 30%
05:00 +24°C° 0 mm 1 mps 716 mmHg 31%
06:00 +25°C° 0 mm 1 mps 716 mmHg 29%
07:00 +27°C° 0 mm 2 mps 716 mmHg 27%
08:00 +28°C° 0 mm 2 mps 717 mmHg 25%
09:00 +30°C° 0 mm 2 mps 717 mmHg 22%
10:00 +33°C° 0 mm 3 mps 717 mmHg 19%
11:00 +35°C° 0 mm 3 mps 717 mmHg 16%
12:00 +35°C° 0 mm 4 mps 717 mmHg 15%
13:00 +36°C° 0 mm 4 mps 716 mmHg 14%
14:00 +37°C° 0 mm 4 mps 716 mmHg 13%
15:00 +37°C° 0 mm 5 mps 716 mmHg 13%
16:00 +38°C° 0 mm 6 mps 715 mmHg 12%
17:00 +38°C° 0 mm 6 mps 715 mmHg 12%
18:00 +35°C° 0 mm 6 mps 715 mmHg 13%
19:00 +33°C° 0 mm 6 mps 715 mmHg 14%
20:00 +30°C° 0 mm 6 mps 715 mmHg 15%
21:00 +28°C° 0 mm 5 mps 715 mmHg 16%
22:00 +27°C° 0 mm 4 mps 715 mmHg 16%
23:00 +25°C° 0 mm 3 mps 715 mmHg 17%

Tomorrow, 14 June, Monday

Time Temperature Precipitation Wind Pressure Humidity
00:00 +24°C° 0 mm 3 mps 715 mmHg 19%
01:00 +23°C° 0 mm 2 mps 715 mmHg 20%
02:00 +21°C° 0 mm 2 mps 715 mmHg 22%
03:00 +20°C° 0 mm 2 mps 715 mmHg 23%
04:00 +19°C° 0 mm 2 mps 715 mmHg 24%
05:00 +18°C° 0 mm 2 mps 715 mmHg 25%
06:00 +20°C° 0 mm 3 mps 715 mmHg 23%
07:00 +21°C° 0 mm 3 mps 716 mmHg 21%
08:00 +23°C° 0 mm 4 mps 716 mmHg 18%
09:00 +26°C° 0 mm 4 mps 716 mmHg 17%
10:00 +28°C° 0 mm 4 mps 716 mmHg 16%
11:00 +30°C° 0 mm 4 mps 716 mmHg 14%
12:00 +31°C° 0 mm 3 mps 716 mmHg 13%
13:00 +33°C° 0 mm 3 mps 716 mmHg 11%
14:00 +34°C° 0 mm 2 mps 715 mmHg 10%
15:00 +35°C° 0 mm 2 mps 715 mmHg 9%
16:00 +35°C° 0 mm 2 mps 715 mmHg 8%
17:00 +36°C° 0 mm 2 mps 714 mmHg 7%
18:00 +34°C° 0 mm 2 mps 714 mmHg 9%
19:00 +30°C° 0 mm 3 mps 714 mmHg 12%
20:00 +28°C° 0 mm 3 mps 714 mmHg 14%
21:00 +27°C° 0 mm 3 mps 714 mmHg 15%
22:00 +26°C° 0 mm 3 mps 713 mmHg 17%
23:00 +24°C° 0 mm 3 mps 713 mmHg 18%

Day after tomorrow, 15 June, Tuesday

Time Temperature Precipitation Wind Pressure Humidity
00:00 +22°C° 0 mm 3 mps 713 mmHg 19%
01:00 +21°C° 0 mm 3 mps 713 mmHg 20%
02:00 +20°C° 0 mm 3 mps 713 mmHg 21%
03:00 +19°C° 0 mm 3 mps 713 mmHg 23%
04:00 +18°C° 0 mm 4 mps 714 mmHg 24%
05:00 +17°C° 0 mm 4 mps 714 mmHg 26%
06:00 +19°C° 0 mm 4 mps 715 mmHg 24%
07:00 +21°C° 0 mm 4 mps 716 mmHg 22%
08:00 +23°C° 0 mm 5 mps 716 mmHg 21%
09:00 +26°C° 0 mm 4 mps 716 mmHg 18%
10:00 +28°C° 0 mm 4 mps 716 mmHg 16%
11:00 +30°C° 0 mm 4 mps 716 mmHg 14%
12:00 +33°C° 0 mm 3 mps 716 mmHg 13%
13:00 +34°C° 0 mm 2 mps 716 mmHg 12%
14:00 +35°C° 0 mm 2 mps 715 mmHg 11%
15:00 +35°C° 0 mm 2 mps 715 mmHg 10%
16:00 +36°C° 0 mm 2 mps 715 mmHg 10%
17:00 +36°C° 0 mm 3 mps 715 mmHg 9%
18:00 +34°C° 0 mm 3 mps 714 mmHg 12%
19:00 +31°C° 0 mm 3 mps 714 mmHg 14%
20:00 +29°C° 0 mm 3 mps 714 mmHg 17%
21:00 +27°C° 0 mm 3 mps 714 mmHg 20%
22:00 +26°C° 0 mm 3 mps 714 mmHg 22%
23:00 +24°C° 0 mm 3 mps 714 mmHg 24%

16 June, Wednesday

Time Temperature Precipitation Wind Pressure Humidity
00:00 +24°C° 0 mm 3 mps 714 mmHg 25%
01:00 +22°C° 0 mm 3 mps 713 mmHg 26%
02:00 +21°C° 0 mm 3 mps 713 mmHg 27%
03:00 +21°C° 0 mm 3 mps 714 mmHg 27%
04:00 +20°C° 0 mm 3 mps 714 mmHg 27%
05:00 +20°C° 0 mm 3 mps 714 mmHg 27%
06:00 +22°C° 0 mm 3 mps 715 mmHg 25%
07:00 +25°C° 0 mm 3 mps 715 mmHg 24%
08:00 +26°C° 0 mm 4 mps 716 mmHg 22%
09:00 +28°C° 0 mm 4 mps 716 mmHg 20%
10:00 +32°C° 0 mm 4 mps 716 mmHg 18%
11:00 +34°C° 0 mm 4 mps 716 mmHg 16%
12:00 +35°C° 0 mm 3 mps 715 mmHg 14%
13:00 +36°C° 0 mm 3 mps 715 mmHg 12%
14:00 +37°C° 0 mm 2 mps 715 mmHg 10%
15:00 +37°C° 0 mm 2 mps 715 mmHg 10%
16:00 +37°C° 0 mm 2 mps 715 mmHg 9%
17:00 +37°C° 0 mm 2 mps 714 mmHg 9%
18:00 +35°C° 0 mm 2 mps 714 mmHg 12%
19:00 +31°C° 0 mm 3 mps 714 mmHg 16%
20:00 +29°C° 0 mm 3 mps 714 mmHg 20%
21:00 +28°C° 0 mm 3 mps 714 mmHg 22%
22:00 +26°C° 0 mm 3 mps 715 mmHg 25%
23:00 +25°C° 0 mm 3 mps 715 mmHg 28%

17 June, Thursday

Time Temperature Precipitation Wind Pressure Humidity
00:00 +25°C° 0 mm 3 mps 715 mmHg 28%
01:00 +24°C° 0 mm 2 mps 715 mmHg 28%
02:00 +24°C° 0 mm 2 mps 714 mmHg 29%
03:00 +23°C° 0 mm 2 mps 715 mmHg 29%
04:00 +23°C° 0 mm 2 mps 715 mmHg 29%
05:00 +21°C° 0 mm 2 mps 715 mmHg 29%
06:00 +24°C° 0 mm 2 mps 715 mmHg 27%
07:00 +26°C° 0 mm 2 mps 716 mmHg 24%
08:00 +28°C° 0 mm 3 mps 716 mmHg 21%
09:00 +30°C° 0 mm 3 mps 716 mmHg 20%
10:00 +33°C° 0 mm 3 mps 716 mmHg 18%
11:00 +35°C° 0 mm 4 mps 716 mmHg 16%
12:00 +36°C° 0 mm 3 mps 716 mmHg 15%
13:00 +37°C° 0 mm 3 mps 715 mmHg 14%
14:00 +38°C° 0 mm 2 mps 715 mmHg 12%
15:00 +37°C° 0 mm 2 mps 715 mmHg 12%
16:00 +37°C° 0 mm 3 mps 715 mmHg 12%
17:00 +37°C° 0 mm 3 mps 715 mmHg 12%
18:00 +35°C° 0 mm 3 mps 715 mmHg 14%
19:00 +34°C° 0 mm 3 mps 714 mmHg 15%
20:00 +31°C° 0 mm 3 mps 714 mmHg 17%
21:00 +29°C° 0 mm 3 mps 714 mmHg 20%
22:00 +28°C° 0 mm 3 mps 715 mmHg 23%
23:00 +26°C° 0 mm 2 mps 715 mmHg 26%

18 June, Friday

Time Temperature Precipitation Wind Pressure Humidity
00:00 +25°C° 0 mm 2 mps 715 mmHg 28%
01:00 +25°C° 0 mm 2 mps 714 mmHg 29%
02:00 +24°C° 0 mm 2 mps 714 mmHg 31%
03:00 +24°C° 0 mm 2 mps 714 mmHg 31%
04:00 +24°C° 0 mm 2 mps 714 mmHg 31%
05:00 +23°C° 0 mm 2 mps 715 mmHg 32%
06:00 +25°C° 0 mm 2 mps 715 mmHg 28%
07:00 +28°C° 0 mm 2 mps 715 mmHg 24%
08:00 +30°C° 0 mm 2 mps 716 mmHg 20%
09:00 +33°C° 0 mm 3 mps 716 mmHg 18%
10:00 +35°C° 0 mm 3 mps 716 mmHg 15%
11:00 +36°C° 0 mm 3 mps 716 mmHg 13%
12:00 +37°C° 0 mm 3 mps 716 mmHg 11%
13:00 +38°C° 0 mm 3 mps 716 mmHg 10%
14:00 +39°C° 0 mm 3 mps 716 mmHg 8%
15:00 +39°C° 0 mm 2 mps 715 mmHg 8%
16:00 +39°C° 0 mm 2 mps 715 mmHg 7%
17:00 +40°C° 0 mm 1 mps 715 mmHg 7%
18:00 +37°C° 0 mm 2 mps 715 mmHg 8%
19:00 +35°C° 0 mm 2 mps 715 mmHg 10%
20:00 +33°C° 0 mm 3 mps 715 mmHg 12%
21:00 +30°C° 0 mm 3 mps 715 mmHg 13%
22:00 +29°C° 0 mm 3 mps 715 mmHg 15%
23:00 +27°C° 0 mm 3 mps 715 mmHg 16%
Show more